CQ0XSM-11 Weather Reports


time (UTC)temp
F
wind
direction
speed
knots
gust
knots
rain 1hr
in
rain 24hr
in
rain mn
in
humidity
%
barometer
mb
20260507044602 45 315 1.7 4.3 0.00 0.00 0.00 100 990.3
20260507044053 45 311 0.9 2.6 0.00 0.00 0.00 100 990.3
20260507043117 46 266 0.9 2.6 0.00 0.00 0.00 100 990.2
20260507042554 46 12 0.0 3.5 0.00 0.00 0.00 100 990.2
20260507042033 46 331 1.7 3.5 0.00 0.00 0.00 100 990.3
20260507041602 46 315 1.7 2.6 0.00 0.00 0.00 100 990.2
20260507041036 46 291 0.0 2.6 0.00 0.00 0.00 100 990.3
20260507040533 46 315 0.9 2.6 0.00 0.00 0.00 100 990.4
20260507035529 46 294 0.9 3.5 0.00 0.00 0.00 100 990.5
20260507035021 46 295 0.0 2.6 0.00 0.00 0.00 100 990.5
20260507034514 46 291 0.9 2.6 0.00 0.00 0.00 100 990.4
20260507034025 45 274 1.7 3.5 0.00 0.00 0.00 100 990.5
20260507033501 45 270 0.0 7.8 0.00 0.00 0.00 100 990.4
20260507033022 46 315 0.0 0.9 0.00 0.00 0.00 100 990.5
20260507032455 46 283 0.0 1.7 0.00 0.00 0.00 100 990.5
20260507032026 46 315 0.0 0.9 0.00 0.00 0.00 100 990.5
20260507031454 46 235 0.0 0.9 0.00 0.00 0.00 100 990.6
20260507031003 46 270 0.0 1.7 0.00 0.00 0.00 100 990.6
20260507030438 46 324 0.0 0.9 0.00 0.00 0.00 100 990.6
20260507030018 46 286 0.9 1.7 0.00 0.00 0.00 100 990.7
20260507025437 46 266 1.7 2.6 0.00 0.00 0.00 100 990.6
20260507024949 46 313 0.9 1.7 0.00 0.00 0.00 100 990.6
20260507024438 46 314 0.9 0.9 0.00 0.00 0.00 100 990.7
20260507023941 46 301 0.9 2.6 0.00 0.00 0.00 100 990.7
20260507023431 46 287 0.0 2.6 0.00 0.00 0.00 100 990.7
20260507022946 46 315 0.0 2.6 0.00 0.00 0.00 100 990.7
20260507021425 46 315 0.0 2.6 0.00 0.00 0.00 100 990.7
20260507020916 46 281 0.9 1.7 0.00 0.00 0.00 100 990.7
20260507020409 46 312 0.9 5.2 0.00 0.00 0.00 100 990.8
20260507015959 46 273 2.6 3.5 0.00 0.00 0.00 100 990.8
20260507015358 46 289 0.9 2.6 0.00 0.00 0.00 100 990.8
20260507014909 46 315 0.0 2.6 0.00 0.00 0.00 100 990.8
20260507014352 46 306 1.7 1.7 0.00 0.00 0.00 100 990.9
20260507013911 46 303 2.6 2.6 0.00 0.00 0.00 100 991.0
20260507013345 46 288 0.9 2.6 0.00 0.00 0.00 100 991.0
20260507012912 46 267 2.6 2.6 0.00 0.00 0.00 100 990.9
20260507012345 46 270 0.9 1.7 0.00 0.00 0.00 100 990.9
20260507011851 46 315 0.0 4.3 0.00 0.00 0.00 100 991.0
20260507011333 46 305 0.0 1.7 0.00 0.00 0.00 100 991.1
20260507010840 46 313 2.6 2.6 0.00 0.00 0.00 100 991.2
20260507010326 46 315 0.0 2.6 0.00 0.00 0.00 100 991.2
20260507005915 46 318 1.7 3.5 0.00 0.00 0.00 100 991.3
20260507005316 46 285 0.0 1.7 0.00 0.00 0.00 100 991.2
20260507004833 46 310 0.9 1.7 0.00 0.00 0.00 100 991.3
20260507003815 46 309 1.7 3.5 0.00 0.00 0.00 100 991.5
20260507003307 46 322 2.6 3.5 0.00 0.00 0.00 100 991.5
20260507002835 46 319 1.7 3.5 0.00 0.00 0.00 100 991.5
20260507002301 47 316 2.6 4.3 0.00 0.00 0.00 100 991.4
20260507001810 47 310 0.0 3.5 0.00 0.00 0.00 100 991.5
20260507001252 47 315 0.0 2.6 0.00 0.00 0.00 100 991.4
20260507000801 47 296 0.9 2.6 0.00 0.00 0.00 100 991.5
20260507000255 47 325 0.9 5.2 0.00 0.00 0.00 100 991.4
20260506235801 47 294 2.6 3.5 0.00 0.00 0.00 100 991.5
20260506235301 47 13 0.9 4.3 0.00 0.00 0.00 100 991.5
20260506234745 47 281 0.0 3.5 0.00 0.00 0.00 100 991.4
20260506234236 47 320 1.7 4.3 0.00 0.00 0.00 100 991.4
20260506233742 47 308 2.6 6.1 0.00 0.00 0.00 100 991.3
20260506233229 47 319 2.6 6.1 0.00 0.00 0.00 100 991.5
20260506232735 47 292 0.9 2.6 0.00 0.00 0.00 100 991.4
20260506232258 47 315 1.7 2.6 0.00 0.00 0.00 100 991.5
20260506231738 48 316 2.6 3.5 0.00 0.00 0.00 100 991.5
20260506231216 48 294 0.9 3.5 0.00 0.00 0.00 100 991.4
20260506230728 48 311 0.9 7.8 0.00 0.00 0.00 100 991.4
20260506230210 48 321 3.5 5.2 0.00 0.00 0.00 100 991.5
20260506225726 48 274 3.5 7.0 0.00 0.00 0.00 100 991.5
20260506224732 48 313 2.6 7.0 0.00 0.00 0.00 100 991.5
20260506224150 48 316 2.6 6.1 0.00 0.00 0.00 100 991.5
20260506223715 48 304 4.3 6.1 0.00 0.00 0.00 100 991.6
20260506222658 48 295 5.2 11.3 0.00 0.00 0.00 100 991.6
20260506221649 49 323 2.6 7.8 0.00 0.00 0.00 100 991.7
20260506221138 49 301 5.2 9.6 0.00 0.00 0.00 100 991.7
20260506220705 49 305 1.7 7.0 0.00 0.00 0.00 100 991.7
20260506220132 49 323 1.7 5.2 0.00 0.00 0.00 100 991.8
20260506215632 49 324 2.6 5.2 0.00 0.00 0.00 100 991.8
20260506214631 49 331 3.5 6.1 0.00 0.00 0.00 100 991.8
20260506214142 49 316 0.9 7.0 0.00 0.00 0.00 100 991.8
20260506213630 50 300 4.3 7.0 0.00 0.00 0.00 100 991.7
20260506212619 50 306 0.9 4.3 0.00 0.00 0.00 100 991.7
20260506212129 50 309 2.6 5.2 0.00 0.00 0.00 99 991.8
20260506211614 50 297 2.6 5.2 0.00 0.00 0.00 98 991.7
20260506211100 50 327 4.3 6.1 0.00 0.00 0.00 97 991.7
20260506210107 50 308 1.7 6.1 0.00 0.00 0.00 95 991.7
20260506205615 51 319 3.5 7.8 0.00 0.00 0.00 93 991.7
20260506204601 51 290 3.5 4.3 0.00 0.00 0.00 89 991.6
20260506203613 51 311 5.2 5.2 0.00 0.00 0.00 87 991.5
20260506203030 51 327 5.2 7.0 0.00 0.00 0.00 86 991.5
20260506202542 52 302 0.9 8.7 0.00 0.00 0.00 84 991.4
20260506202045 52 315 6.1 7.0 0.00 0.00 0.00 83 991.4
20260506201528 52 306 4.3 7.0 0.00 0.00 0.00 81 991.3
20260506201035 52 317 6.1 7.0 0.00 0.00 0.00 78 991.3
20260506200528 53 314 3.5 4.3 0.00 0.00 0.00 76 991.3
20260506200020 53 310 4.3 6.1 0.00 0.00 0.00 74 991.2
20260506195521 53 307 4.3 6.1 0.00 0.00 0.00 72 991.1
20260506195039 53 315 2.6 5.2 0.00 0.00 0.00 69 991.1
20260506194510 53 294 1.7 9.6 0.00 0.00 0.00 67 991.1
20260506194007 54 315 4.3 6.1 0.00 0.00 0.00 65 991.1
20260506193506 54 326 3.5 6.1 0.00 0.00 0.00 63 991.1
20260506193008 55 317 5.2 7.0 0.00 0.00 0.00 61 991.1
20260506192502 55 334 5.2 9.6 0.00 0.00 0.00 59 991.0
20260506192015 55 334 4.3 7.8 0.00 0.00 0.00 58 990.9
20260506191509 56 307 2.6 5.2 0.00 0.00 0.00 57 990.9
20260506190943 56 314 3.5 7.0 0.00 0.00 0.00 54 990.8
20260506190459 56 320 1.7 8.7 0.00 0.00 0.00 54 990.8
20260506185443 57 313 7.8 9.6 0.00 0.00 0.00 52 990.7
20260506185011 57 317 6.1 8.7 0.00 0.00 0.00 51 990.5
20260506184449 57 297 7.0 7.8 0.00 0.00 0.00 51 990.6
20260506183931 58 314 7.0 11.3 0.00 0.00 0.00 50 990.7
20260506183444 58 311 4.3 8.7 0.00 0.00 0.00 49 990.6
20260506182930 58 311 6.1 11.3 0.00 0.00 0.00 49 990.6
20260506182416 59 292 4.3 11.3 0.00 0.00 0.00 48 990.6
20260506181418 59 297 7.8 9.6 0.00 0.00 0.00 47 990.6
20260506180909 59 282 7.8 12.2 0.00 0.00 0.00 47 990.6
20260506180425 59 301 7.8 13.9 0.00 0.00 0.00 46 990.6
20260506175907 60 323 6.1 13.9 0.00 0.00 0.00 46 990.6
20260506175405 60 311 6.1 12.2 0.00 0.00 0.00 46 990.5
20260506174915 60 306 8.7 14.8 0.00 0.00 0.00 45 990.7
20260506174409 61 316 5.2 11.3 0.00 0.00 0.00 43 990.7
20260506173856 61 297 5.2 13.0 0.00 0.00 0.00 43 990.7
20260506173410 61 331 9.6 9.6 0.00 0.00 0.00 43 990.7
20260506172843 62 316 6.1 9.6 0.00 0.00 0.00 42 990.7
20260506172337 62 349 2.6 13.9 0.00 0.00 0.00 42 990.6
20260506171916 63 317 6.1 10.4 0.00 0.00 0.00 42 990.7
20260506171340 63 321 5.2 7.0 0.00 0.00 0.00 42 990.8
20260506170355 62 302 3.5 14.8 0.00 0.00 0.00 44 990.7
20260506165820 62 296 3.5 10.4 0.00 0.00 0.00 43 990.8
20260506165327 61 320 6.1 7.8 0.00 0.00 0.00 44 990.8
20260506164850 61 278 7.0 12.2 0.00 0.00 0.00 43 990.8
20260506164315 61 304 5.2 9.6 0.00 0.00 0.00 42 990.8
20260506163810 62 263 7.0 12.2 0.00 0.00 0.00 41 990.7
20260506163331 63 315 10.4 10.4 0.00 0.00 0.00 40 990.8
20260506161307 63 313 3.5 10.4 0.00 0.00 0.00 41 990.8
20260506155745 64 292 5.2 8.7 0.00 0.00 0.00 37 990.8
20260506155250 64 307 6.1 7.8 0.00 0.00 0.00 35 990.9
20260506154803 63 284 0.9 7.0 0.00 0.00 0.00 37 990.9
20260506154240 63 319 2.6 7.8 0.00 0.00 0.00 36 990.9
20260506153247 63 282 3.5 7.8 0.00 0.00 0.00 38 990.9
20260506152229 63 338 2.6 7.0 0.00 0.00 0.00 37 991.0
20260506151735 64 313 3.5 7.0 0.00 0.00 0.00 35 991.1
20260506151235 64 322 0.9 5.2 0.00 0.00 0.00 35 991.2
20260506150736 63 126 1.7 5.2 0.00 0.00 0.00 37 991.3
20260506150228 63 355 0.9 2.6 0.00 0.00 0.00 35 991.3
20260506145710 63 359 0.9 6.1 0.00 0.00 0.00 35 991.4
20260506144715 64 315 0.9 7.8 0.00 0.00 0.00 34 991.5
20260506144204 64 142 3.5 7.0 0.00 0.00 0.00 34 991.6
20260506143653 64 315 7.8 9.6 0.00 0.00 0.00 34 991.7
20260506143226 65 339 7.0 7.0 0.00 0.00 0.00 35 991.8
20260506142701 65 313 8.7 8.7 0.00 0.00 0.00 33 991.8
20260506141659 64 15 0.9 8.7 0.00 0.00 0.00 37 991.9
20260506141148 63 302 3.5 6.1 0.00 0.00 0.00 38 992.0
20260506140643 63 315 4.3 5.2 0.00 0.00 0.00 36 992.1
20260506140230 63 91 1.7 9.6 0.00 0.00 0.00 39 992.0
20260506135635 62 315 5.2 8.7 0.00 0.00 0.00 40 992.2
20260506135141 62 301 5.2 5.2 0.00 0.00 0.00 40 992.2
20260506134650 61 269 1.7 8.7 0.00 0.00 0.00 38 992.3
20260506134128 62 312 7.0 8.7 0.00 0.00 0.00 38 992.3
20260506133631 62 280 3.5 8.7 0.00 0.00 0.00 39 992.4
20260506133131 63 271 3.5 7.0 0.00 0.00 0.00 37 992.4
20260506132628 64 303 4.3 7.0 0.00 0.00 0.00 36 992.4
20260506132129 63 347 0.9 7.0 0.00 0.00 0.00 37 992.5
20260506131633 63 287 4.3 7.8 0.00 0.00 0.00 37 992.7
20260506131126 63 343 4.3 7.8 0.00 0.00 0.00 38 992.7
20260506125611 63 291 3.5 8.7 0.00 0.00 0.00 38 992.9
20260506125107 63 306 4.3 6.1 0.00 0.00 0.00 38 992.8
20260506124605 64 143 0.9 3.5 0.00 0.00 0.00 37 993.0
20260506124104 63 337 4.3 7.0 0.00 0.00 0.00 38 993.0
20260506123541 63 327 4.3 4.3 0.00 0.00 0.00 40 993.1
20260506123047 62 318 0.9 6.1 0.00 0.00 0.00 41 993.1
20260506122529 62 324 6.1 8.7 0.00 0.00 0.00 39 993.3
20260506122059 63 328 2.6 4.3 0.00 0.00 0.00 40 993.3
20260506121522 62 335 4.3 4.3 0.00 0.00 0.00 40 993.3
20260506121054 61 81 0.0 5.2 0.00 0.00 0.00 43 993.4
20260506120516 61 348 4.3 6.1 0.00 0.00 0.00 40 993.5
20260506120103 62 271 0.9 3.5 0.00 0.00 0.00 41 993.4
20260506115510 61 142 0.9 4.3 0.00 0.00 0.00 43 993.5
20260506115034 60 320 2.6 6.1 0.00 0.00 0.00 44 993.6
20260506114459 60 291 3.5 7.0 0.00 0.00 0.00 47 993.7
20260506113457 62 326 4.3 6.1 0.00 0.00 0.00 41 993.8
20260506113015 62 92 2.6 3.5 0.00 0.00 0.00 45 993.6
20260506112450 61 248 2.6 4.3 0.00 0.00 0.00 46 993.8
20260506112014 61 325 2.6 7.0 0.00 0.00 0.00 47 993.9
20260506111444 60 312 4.3 7.0 0.00 0.00 0.00 48 994.0
20260506110449 62 90 0.9 2.6 0.00 0.00 0.00 42 994.0
20260506105427 60 195 0.0 4.3 0.00 0.00 0.00 45 994.0
20260506104939 60 331 0.9 7.0 0.00 0.00 0.00 47 994.0
20260506104430 59 321 0.0 1.7 0.00 0.00 0.00 50 994.1
20260506103928 58 135 0.0 1.7 0.00 0.00 0.00 54 994.1
20260506103420 58 315 0.9 3.5 0.00 0.00 0.00 51 994.2
20260506102924 58 295 2.6 7.0 0.00 0.00 0.00 55 994.2
20260506102407 58 326 2.6 4.3 0.00 0.00 0.00 57 994.2
20260506101916 57 273 3.5 7.0 0.00 0.00 0.00 55 994.3
20260506101406 57 258 4.3 6.1 0.00 0.00 0.00 58 994.3
20260506100928 57 281 0.9 5.2 0.00 0.00 0.00 59 994.2
20260506100400 58 319 4.3 5.2 0.00 0.00 0.00 58 994.3
20260506095954 58 183 0.0 5.2 0.00 0.00 0.00 59 994.3
20260506095359 58 329 0.9 3.5 0.00 0.00 0.00 59 994.3
20260506094913 58 335 3.5 5.2 0.00 0.00 0.00 61 994.4
20260506094345 58 193 0.0 5.2 0.00 0.00 0.00 63 994.3
20260506093927 58 329 0.9 2.6 0.00 0.00 0.00 63 994.3
20260506093333 57 131 0.9 2.6 0.00 0.00 0.00 69 994.3
20260506092334 56 312 1.7 4.3 0.00 0.00 0.00 72 994.4
20260506091838 55 359 0.0 3.5 0.00 0.00 0.00 75 994.4
20260506091327 55 310 2.6 7.8 0.00 0.00 0.00 69 994.4
20260506090834 55 347 2.6 4.3 0.00 0.00 0.00 77 994.4
20260506090321 55 351 0.0 3.5 0.00 0.00 0.00 79 994.5
20260506085829 54 265 0.9 6.1 0.00 0.00 0.00 84 994.5
20260506085324 53 291 5.2 7.0 0.00 0.00 0.00 85 994.6
20260506084824 53 302 5.2 5.2 0.00 0.00 0.00 86 994.7
20260506084312 53 315 5.2 5.2 0.00 0.00 0.00 86 994.6
20260506083835 53 318 0.9 4.3 0.00 0.00 0.00 89 994.6
20260506083315 52 286 1.7 6.1 0.00 0.00 0.00 88 994.6
20260506082801 52 275 4.3 7.0 0.00 0.00 0.00 92 994.6
20260506082321 52 289 4.3 10.4 0.00 0.00 0.00 91 994.7
20260506081802 52 269 3.5 4.3 0.00 0.00 0.00 96 994.7
20260506081250 51 319 1.7 4.3 0.00 0.00 0.00 97 994.7
20260506080823 51 327 2.6 5.2 0.00 0.00 0.00 100 994.7
20260506080243 50 328 3.5 8.7 0.00 0.00 0.00 100 994.6
20260506073224 47 289 1.7 1.7 0.00 0.00 0.00 100 994.8
20260506072736 46 270 0.9 1.7 0.00 0.00 0.00 100 994.8
20260506071718 45 315 0.0 0.9 0.00 0.00 0.00 100 994.8
20260506071212 44 315 0.0 0.0 0.00 0.00 0.00 100 994.8
20260506070758 43 290 0.0 0.0 0.00 0.00 0.00 100 994.9
20260506070215 42 90 0.0 0.0 0.00 0.00 0.00 100 994.9
20260506062206 37 225 0.0 0.0 0.00 0.00 0.00 100 994.7
20260506061646 37 225 0.0 0.0 0.00 0.00 0.00 100 994.8
20260506061134 37 45 0.0 0.0 0.00 0.00 0.00 100 994.6
20260506060656 37 45 0.0 0.0 0.00 0.00 0.00 100 994.7
20260506051053 38 270 0.0 0.9 0.00 0.00 0.00 100 994.5
20260506050637 38 98 0.9 0.9 0.00 0.00 0.00 100 994.6
20260506045103 39 123 0.9 0.9 0.00 0.00 0.00 100 994.5